Location: Seattle
(47.6064°N, 122.3308°W)
Time: 13:50:09
(UTC-07:00)

UKube-1 - Pass Details

Date: 11 April 2023
Orbit: 602 x 605 km, 98.3° (Epoch: 31 May)

Event Time Altitude Azimuth Distance (km) Brightness Sun altitude
Rises 22:35:33 0° 46° (NE) 2,868 ? -24.5°
Enters shadow 22:36:06 - 51° (NE) 2,748 ? -24.6°
Exits shadow 23:10:53 -57° 184° (S) 11,361 ? -28.2°
Reaches altitude 10° 00:11:51 10° 23° (NNE) 1,963 ? -32.6°
